Time,TemperatureF,DewpointF,PressureIn,WindDirection,WindDirectionDegrees,WindSpeedMPH,WindSpeedGustMPH,Humidity,HourlyPrecipIn,Conditions,Clouds,dailyrainin,SoftwareType,DateUTC
2013-03-08 00:02:00,21.9,8.5,30.38,ESE,112,0.0,0.0,56,0.00,,,0.00,WUHU21623XXSP,2013-03-08 06:02:00,
2013-03-08 00:07:00,21.6,8.2,30.38,ESE,112,0.0,0.0,56,0.00,,,0.00,WUHU21623XXSP,2013-03-08 06:07:00,
2013-03-08 00:12:00,21.4,7.6,30.37,ESE,112,0.0,0.0,55,0.00,,,0.00,WUHU21623XXSP,2013-03-08 06:12:00,
2013-03-08 00:17:00,21.4,7.6,30.37,ESE,112,0.0,0.0,55,0.00,,,0.00,WUHU21623XXSP,2013-03-08 06:17:00,
2013-03-08 00:22:00,21.0,7.3,30.37,ENE,67,0.2,0.2,55,0.00,,,0.00,WUHU21623XXSP,2013-03-08 06:22:00,
2013-03-08 00:27:00,21.0,7.7,30.37,ESE,112,0.0,0.2,56,0.00,,,0.00,WUHU21623XXSP,2013-03-08 06:27:00,
2013-03-08 00:32:00,20.8,7.5,30.37,East,90,0.0,0.0,56,0.00,,,0.00,WUHU21623XXSP,2013-03-08 06:32:00,
2013-03-08 00:37:00,20.8,7.5,30.37,SE,135,0.0,0.0,56,0.00,,,0.00,WUHU21623XXSP,2013-03-08 06:37:00,
2013-03-08 00:42:00,20.8,7.5,30.36,ESE,112,0.2,0.2,56,0.00,,,0.00,WUHU21623XXSP,2013-03-08 06:42:00,
2013-03-08 00:47:00,20.8,7.5,30.36,ESE,112,0.0,0.7,56,0.00,,,0.00,WUHU21623XXSP,2013-03-08 06:47:00,
2013-03-08 00:52:00,20.8,7.9,30.37,SE,135,0.0,0.7,57,0.00,,,0.00,WUHU21623XXSP,2013-03-08 06:52:00,
2013-03-08 00:57:00,20.8,7.9,30.37,East,90,3.1,3.1,57,0.00,,,0.00,WUHU21623XXSP,2013-03-08 06:57:00,
2013-03-08 01:02:00,20.8,7.9,30.38,ENE,67,0.0,3.1,57,0.00,,,0.00,WUHU21623XXSP,2013-03-08 07:02:00,
2013-03-08 01:07:00,21.0,8.1,30.37,ESE,112,1.1,1.1,57,0.00,,,0.00,WUHU21623XXSP,2013-03-08 07:07:00,
2013-03-08 01:12:00,21.0,8.5,30.38,ESE,112,0.4,1.1,58,0.00,,,0.00,WUHU21623XXSP,2013-03-08 07:12:00,
2013-03-08 01:17:00,21.0,8.5,30.38,East,90,0.0,1.6,58,0.00,,,0.00,WUHU21623XXSP,2013-03-08 07:17:00,
2013-03-08 01:22:00,21.0,8.5,30.38,ESE,112,0.0,1.6,58,0.00,,,0.00,WUHU21623XXSP,2013-03-08 07:22:00,
2013-03-08 01:27:00,21.2,8.7,30.38,East,90,0.0,0.7,58,0.00,,,0.00,WUHU21623XXSP,2013-03-08 07:27:00,
2013-03-08 01:32:00,21.2,8.7,30.38,ESE,112,1.1,1.1,58,0.00,,,0.00,WUHU21623XXSP,2013-03-08 07:32:00,
2013-03-08 01:37:00,21.2,8.7,30.38,ESE,112,0.0,1.1,58,0.00,,,0.00,WUHU21623XXSP,2013-03-08 07:37:00,
2013-03-08 01:42:00,21.4,8.8,30.38,ESE,112,0.0,0.4,58,0.00,,,0.00,WUHU21623XXSP,2013-03-08 07:42:00,
2013-03-08 01:47:00,21.4,8.8,30.39,East,90,1.8,1.8,58,0.00,,,0.00,WUHU21623XXSP,2013-03-08 07:47:00,
2013-03-08 01:52:00,21.4,8.8,30.39,ESE,112,0.0,1.8,58,0.00,,,0.00,WUHU21623XXSP,2013-03-08 07:52:00,
2013-03-08 01:57:00,21.4,8.8,30.39,East,90,0.2,0.2,58,0.00,,,0.00,WUHU21623XXSP,2013-03-08 07:57:00,
2013-03-08 02:02:00,21.4,9.2,30.38,SE,135,0.0,2.0,59,0.00,,,0.00,WUHU21623XXSP,2013-03-08 08:02:00,
2013-03-08 02:07:00,21.4,9.2,30.39,ESE,112,0.0,2.0,59,0.00,,,0.00,WUHU21623XXSP,2013-03-08 08:07:00,
2013-03-08 02:12:00,21.4,9.2,30.39,SE,135,0.0,2.0,59,0.00,,,0.00,WUHU21623XXSP,2013-03-08 08:12:00,
2013-03-08 02:17:00,21.4,9.2,30.38,ESE,112,0.0,2.0,59,0.00,,,0.00,WUHU21623XXSP,2013-03-08 08:17:00,
2013-03-08 02:22:00,21.4,9.2,30.38,ESE,112,0.0,2.0,59,0.00,,,0.00,WUHU21623XXSP,2013-03-08 08:22:00,
2013-03-08 02:27:00,21.4,9.2,30.38,ESE,112,0.0,0.7,59,0.00,,,0.00,WUHU21623XXSP,2013-03-08 08:27:00,
2013-03-08 02:32:00,21.4,9.2,30.38,ESE,112,0.0,0.7,59,0.00,,,0.00,WUHU21623XXSP,2013-03-08 08:32:00,
2013-03-08 02:37:00,21.2,9.1,30.38,ESE,112,0.0,0.0,59,0.00,,,0.00,WUHU21623XXSP,2013-03-08 08:37:00,
2013-03-08 02:42:00,21.2,9.1,30.38,ESE,112,0.0,0.0,59,0.00,,,0.00,WUHU21623XXSP,2013-03-08 08:42:00,
2013-03-08 02:47:00,21.0,9.3,30.38,East,90,0.4,0.4,60,0.00,,,0.00,WUHU21623XXSP,2013-03-08 08:47:00,
2013-03-08 02:52:00,21.0,9.3,30.38,ESE,112,2.2,2.2,60,0.00,,,0.00,WUHU21623XXSP,2013-03-08 08:52:00,
2013-03-08 02:57:00,21.0,9.3,30.38,East,90,1.1,2.2,60,0.00,,,0.00,WUHU21623XXSP,2013-03-08 08:57:00,
2013-03-08 03:02:00,21.0,9.3,30.38,ESE,112,0.0,1.1,60,0.00,,,0.00,WUHU21623XXSP,2013-03-08 09:02:00,
2013-03-08 03:07:00,21.0,9.3,30.38,ESE,112,0.0,0.9,60,0.00,,,0.00,WUHU21623XXSP,2013-03-08 09:07:00,
2013-03-08 03:12:00,21.0,9.3,30.38,ESE,112,0.2,0.2,60,0.00,,,0.00,WUHU21623XXSP,2013-03-08 09:12:00,
2013-03-08 03:17:00,21.2,9.3,30.38,ESE,112,0.0,2.0,60,0.00,,,0.00,WUHU21623XXSP,2013-03-08 09:17:00,
2013-03-08 03:22:00,21.0,9.3,30.38,ESE,112,0.0,2.0,60,0.00,,,0.00,WUHU21623XXSP,2013-03-08 09:22:00,
2013-03-08 03:27:00,21.0,9.3,30.38,ESE,112,0.0,0.9,60,0.00,,,0.00,WUHU21623XXSP,2013-03-08 09:27:00,
2013-03-08 03:32:00,21.0,9.3,30.38,East,90,0.0,0.9,60,0.00,,,0.00,WUHU21623XXSP,2013-03-08 09:32:00,
2013-03-08 03:37:00,20.8,9.1,30.38,East,90,0.9,0.9,60,0.00,,,0.00,WUHU21623XXSP,2013-03-08 09:37:00,
2013-03-08 03:42:00,20.8,9.1,30.38,ESE,112,0.0,1.1,60,0.00,,,0.00,WUHU21623XXSP,2013-03-08 09:42:00,
2013-03-08 03:47:00,20.8,9.1,30.38,ESE,112,0.0,1.6,60,0.00,,,0.00,WUHU21623XXSP,2013-03-08 09:47:00,
2013-03-08 03:52:00,20.8,9.1,30.38,East,90,0.0,1.6,60,0.00,,,0.00,WUHU21623XXSP,2013-03-08 09:52:00,
2013-03-08 03:57:00,20.8,9.1,30.38,ESE,112,0.0,1.6,60,0.00,,,0.00,WUHU21623XXSP,2013-03-08 09:57:00,
2013-03-08 04:02:00,20.8,9.1,30.38,ESE,112,0.9,1.6,60,0.00,,,0.00,WUHU21623XXSP,2013-03-08 10:02:00,
2013-03-08 04:07:00,20.8,9.1,30.38,ESE,112,0.7,0.9,60,0.00,,,0.00,WUHU21623XXSP,2013-03-08 10:07:00,
2013-03-08 04:12:00,20.8,9.1,30.38,ESE,112,0.7,0.9,60,0.00,,,0.00,WUHU21623XXSP,2013-03-08 10:12:00,
2013-03-08 04:17:00,20.7,9.0,30.38,East,90,0.0,1.3,60,0.00,,,0.00,WUHU21623XXSP,2013-03-08 10:17:00,
2013-03-08 04:22:00,20.7,9.0,30.38,East,90,0.0,1.3,60,0.00,,,0.00,WUHU21623XXSP,2013-03-08 10:22:00,
2013-03-08 04:27:00,20.8,9.1,30.38,East,90,0.0,0.7,60,0.00,,,0.00,WUHU21623XXSP,2013-03-08 10:27:00,
2013-03-08 04:32:00,20.8,9.1,30.38,ESE,112,0.4,0.7,60,0.00,,,0.00,WUHU21623XXSP,2013-03-08 10:32:00,
2013-03-08 04:37:00,20.8,9.1,30.38,ESE,112,1.1,1.1,60,0.00,,,0.00,WUHU21623XXSP,2013-03-08 10:37:00,
2013-03-08 04:42:00,20.8,9.1,30.38,SE,135,0.0,1.1,60,0.00,,,0.00,WUHU21623XXSP,2013-03-08 10:42:00,
2013-03-08 04:47:00,20.8,9.1,30.38,South,180,1.8,2.7,60,0.00,,,0.00,WUHU21623XXSP,2013-03-08 10:47:00,
2013-03-08 04:52:00,20.8,9.1,30.38,SE,135,1.8,2.7,60,0.00,,,0.00,WUHU21623XXSP,2013-03-08 10:52:00,
2013-03-08 04:57:00,20.7,9.0,30.38,ESE,112,1.8,1.8,60,0.00,,,0.00,WUHU21623XXSP,2013-03-08 10:57:00,
2013-03-08 05:02:00,20.7,9.0,30.38,SE,135,0.0,1.8,60,0.00,,,0.00,WUHU21623XXSP,2013-03-08 11:02:00,
2013-03-08 05:07:00,20.5,8.8,30.38,SE,135,0.7,0.7,60,0.00,,,0.00,WUHU21623XXSP,2013-03-08 11:07:00,
2013-03-08 05:12:00,20.5,8.8,30.38,ENE,67,0.4,0.7,60,0.00,,,0.00,WUHU21623XXSP,2013-03-08 11:12:00,
2013-03-08 05:17:00,20.3,8.6,30.38,ESE,112,0.0,0.9,60,0.00,,,0.00,WUHU21623XXSP,2013-03-08 11:17:00,
2013-03-08 05:22:00,20.3,8.6,30.38,East,90,0.2,0.9,60,0.00,,,0.00,WUHU21623XXSP,2013-03-08 11:22:00,
2013-03-08 05:27:00,20.3,8.6,30.39,SE,135,0.9,0.9,60,0.00,,,0.00,WUHU21623XXSP,2013-03-08 11:27:00,
2013-03-08 05:32:00,20.1,8.4,30.38,SE,135,1.3,1.3,60,0.00,,,0.00,WUHU21623XXSP,2013-03-08 11:32:00,
2013-03-08 05:37:00,20.3,8.6,30.38,ESE,112,0.0,1.3,60,0.00,,,0.00,WUHU21623XXSP,2013-03-08 11:37:00,
2013-03-08 05:42:00,20.3,8.6,30.38,ESE,112,2.0,2.2,60,0.00,,,0.00,WUHU21623XXSP,2013-03-08 11:42:00,
2013-03-08 05:47:00,20.1,8.4,30.38,East,90,2.7,2.7,60,0.00,,,0.00,WUHU21623XXSP,2013-03-08 11:47:00,
2013-03-08 05:52:00,20.1,8.4,30.38,SE,135,2.0,2.7,60,0.00,,,0.00,WUHU21623XXSP,2013-03-08 11:52:00,
2013-03-08 05:57:00,20.1,8.8,30.39,SE,135,0.7,2.0,61,0.00,,,0.00,WUHU21623XXSP,2013-03-08 11:57:00,
2013-03-08 06:02:00,20.1,8.8,30.38,ESE,112,0.9,0.9,61,0.00,,,0.00,WUHU21623XXSP,2013-03-08 12:02:00,
2013-03-08 06:07:00,20.1,8.8,30.39,SE,135,3.4,3.4,61,0.00,,,0.00,WUHU21623XXSP,2013-03-08 12:07:00,
2013-03-08 06:12:00,20.1,8.8,30.39,ESE,112,1.1,3.4,61,0.00,,,0.00,WUHU21623XXSP,2013-03-08 12:12:00,
2013-03-08 06:17:00,20.1,8.8,30.39,ESE,112,1.1,1.1,61,0.00,,,0.00,WUHU21623XXSP,2013-03-08 12:17:00,
2013-03-08 06:22:00,20.1,8.8,30.38,ESE,112,0.4,4.7,61,0.00,,,0.00,WUHU21623XXSP,2013-03-08 12:22:00,
2013-03-08 06:27:00,20.1,8.8,30.38,ESE,112,1.1,4.7,61,0.00,,,0.00,WUHU21623XXSP,2013-03-08 12:27:00,
2013-03-08 06:32:00,20.1,8.8,30.38,ESE,112,4.3,4.3,61,0.00,,,0.00,WUHU21623XXSP,2013-03-08 12:32:00,
2013-03-08 06:37:00,20.1,8.8,30.38,ESE,112,0.9,4.3,61,0.00,,,0.00,WUHU21623XXSP,2013-03-08 12:37:00,
2013-03-08 06:42:00,19.9,8.6,30.39,SE,135,1.8,2.9,61,0.00,,,0.00,WUHU21623XXSP,2013-03-08 12:42:00,
2013-03-08 06:47:00,20.3,8.9,30.39,SE,135,1.1,1.8,61,0.00,,,0.00,WUHU21623XXSP,2013-03-08 12:47:00,
2013-03-08 06:52:00,20.5,9.1,30.39,ESE,112,2.0,2.0,61,0.00,,,0.00,WUHU21623XXSP,2013-03-08 12:52:00,
2013-03-08 06:57:00,20.7,9.3,30.39,ESE,112,1.3,2.0,61,0.00,,,0.00,WUHU21623XXSP,2013-03-08 12:57:00,
2013-03-08 07:02:00,20.7,9.3,30.39,SE,135,0.0,1.3,61,0.00,,,0.00,WUHU21623XXSP,2013-03-08 13:02:00,
2013-03-08 07:07:00,20.8,9.5,30.39,SE,135,1.3,2.7,61,0.00,,,0.00,WUHU21623XXSP,2013-03-08 13:07:00,
2013-03-08 07:12:00,21.0,9.7,30.39,SE,135,0.9,2.7,61,0.00,,,0.00,WUHU21623XXSP,2013-03-08 13:12:00,
2013-03-08 07:17:00,21.4,10.0,30.39,SE,135,0.4,0.9,61,0.00,,,0.00,WUHU21623XXSP,2013-03-08 13:17:00,
2013-03-08 07:22:00,21.7,10.3,30.39,SE,135,1.8,3.6,61,0.00,,,0.00,WUHU21623XXSP,2013-03-08 13:22:00,
2013-03-08 07:27:00,21.9,10.5,30.39,SE,135,0.0,3.6,61,0.00,,,0.00,WUHU21623XXSP,2013-03-08 13:27:00,
2013-03-08 07:32:00,22.1,10.7,30.39,SE,135,2.9,2.9,61,0.00,,,0.00,WUHU21623XXSP,2013-03-08 13:32:00,
2013-03-08 07:37:00,22.3,10.5,30.39,SE,135,2.7,2.9,60,0.00,,,0.00,WUHU21623XXSP,2013-03-08 13:37:00,
2013-03-08 07:42:00,22.6,10.8,30.39,ESE,112,1.3,2.7,60,0.00,,,0.00,WUHU21623XXSP,2013-03-08 13:42:00,
2013-03-08 07:47:00,23.2,11.3,30.39,SE,135,1.8,2.7,60,0.00,,,0.00,WUHU21623XXSP,2013-03-08 13:47:00,
2013-03-08 07:52:00,23.4,11.5,30.39,SE,135,2.5,2.9,60,0.00,,,0.00,WUHU21623XXSP,2013-03-08 13:52:00,
2013-03-08 07:57:00,23.7,11.7,30.39,ESE,112,0.7,2.9,60,0.00,,,0.00,WUHU21623XXSP,2013-03-08 13:57:00,
2013-03-08 08:02:00,24.1,11.8,30.39,SE,135,0.9,0.9,59,0.00,,,0.00,WUHU21623XXSP,2013-03-08 14:02:00,
2013-03-08 08:07:00,24.6,12.3,30.39,ESE,112,0.0,1.3,59,0.00,,,0.00,WUHU21623XXSP,2013-03-08 14:07:00,
2013-03-08 08:12:00,25.2,12.4,30.39,SE,135,2.5,3.1,58,0.00,,,0.00,WUHU21623XXSP,2013-03-08 14:12:00,
2013-03-08 08:17:00,25.3,12.4,30.40,ESE,112,2.0,3.1,58,0.00,,,0.00,WUHU21623XXSP,2013-03-08 14:17:00,
2013-03-08 08:22:00,26.1,12.8,30.40,SE,135,3.4,4.0,57,0.00,,,0.00,WUHU21623XXSP,2013-03-08 14:22:00,
2013-03-08 08:27:00,26.4,13.1,30.40,ESE,112,1.3,4.0,57,0.00,,,0.00,WUHU21623XXSP,2013-03-08 14:27:00,
2013-03-08 08:32:00,26.8,13.1,30.40,SE,135,2.2,3.4,56,0.00,,,0.00,WUHU21623XXSP,2013-03-08 14:32:00,
2013-03-08 08:37:00,27.1,13.0,30.40,ESE,112,2.5,3.4,55,0.00,,,0.00,WUHU21623XXSP,2013-03-08 14:37:00,
2013-03-08 08:42:00,27.5,13.4,30.40,SE,135,3.1,3.4,55,0.00,,,0.00,WUHU21623XXSP,2013-03-08 14:42:00,
2013-03-08 08:47:00,28.4,14.3,30.40,SE,135,0.7,3.1,55,0.00,,,0.00,WUHU21623XXSP,2013-03-08 14:47:00,
2013-03-08 08:52:00,28.9,14.3,30.39,SSE,157,2.2,2.5,54,0.00,,,0.00,WUHU21623XXSP,2013-03-08 14:52:00,
2013-03-08 08:57:00,29.3,14.7,30.40,ESE,112,0.0,2.2,54,0.00,,,0.00,WUHU21623XXSP,2013-03-08 14:57:00,
2013-03-08 09:02:00,29.8,14.7,30.40,SE,135,2.5,2.5,53,0.00,,,0.00,WUHU21623XXSP,2013-03-08 15:02:00,
2013-03-08 09:07:00,29.7,14.2,30.39,SSE,157,1.1,2.5,52,0.00,,,0.00,WUHU21623XXSP,2013-03-08 15:07:00,
2013-03-08 09:12:00,30.2,14.6,30.39,SE,135,1.6,1.8,52,0.00,,,0.00,WUHU21623XXSP,2013-03-08 15:12:00,
2013-03-08 09:17:00,30.9,15.3,30.39,ESE,112,1.1,2.9,52,0.00,,,0.00,WUHU21623XXSP,2013-03-08 15:17:00,
2013-03-08 09:22:00,31.5,15.4,30.39,SE,135,3.6,3.6,51,0.00,,,0.00,WUHU21623XXSP,2013-03-08 15:22:00,
2013-03-08 09:27:00,32.2,16.0,30.39,ESE,112,1.8,3.6,51,0.00,,,0.00,WUHU21623XXSP,2013-03-08 15:27:00,
2013-03-08 09:32:00,32.4,15.8,30.39,ESE,112,3.8,3.8,50,0.00,,,0.00,WUHU21623XXSP,2013-03-08 15:32:00,
2013-03-08 09:37:00,32.5,15.9,30.39,SE,135,4.0,4.0,50,0.00,,,0.00,WUHU21623XXSP,2013-03-08 15:37:00,
2013-03-08 09:42:00,32.7,16.1,30.39,SE,135,4.7,4.7,50,0.00,,,0.00,WUHU21623XXSP,2013-03-08 15:42:00,
2013-03-08 09:47:00,33.1,16.4,30.39,SE,135,0.0,5.4,50,0.00,,,0.00,WUHU21623XXSP,2013-03-08 15:47:00,
2013-03-08 09:52:00,33.4,16.2,30.39,SE,135,3.8,5.4,49,0.00,,,0.00,WUHU21623XXSP,2013-03-08 15:52:00,
2013-03-08 09:57:00,33.4,15.7,30.39,SE,135,7.2,7.2,48,0.00,,,0.00,WUHU21623XXSP,2013-03-08 15:57:00,
2013-03-08 10:02:00,33.4,15.7,30.39,ESE,112,1.3,7.2,48,0.00,,,0.00,WUHU21623XXSP,2013-03-08 16:02:00,
2013-03-08 10:07:00,34.0,16.7,30.39,SSE,157,0.9,6.5,49,0.00,,,0.00,WUHU21623XXSP,2013-03-08 16:07:00,
2013-03-08 10:12:00,34.3,17.1,30.39,SSE,157,3.4,3.4,49,0.00,,,0.00,WUHU21623XXSP,2013-03-08 16:12:00,
2013-03-08 10:17:00,34.7,16.9,30.39,SSE,157,1.1,3.4,48,0.00,,,0.00,WUHU21623XXSP,2013-03-08 16:17:00,
2013-03-08 10:22:00,34.7,16.4,30.39,ESE,112,3.6,4.0,47,0.00,,,0.00,WUHU21623XXSP,2013-03-08 16:22:00,
2013-03-08 10:27:00,34.9,17.1,30.39,SSE,157,5.8,5.8,48,0.00,,,0.00,WUHU21623XXSP,2013-03-08 16:27:00,
2013-03-08 10:32:00,35.4,17.6,30.39,SE,135,5.1,5.8,48,0.00,,,0.00,WUHU21623XXSP,2013-03-08 16:32:00,
2013-03-08 10:37:00,35.8,18.0,30.39,SSE,157,6.5,6.5,48,0.00,,,0.00,WUHU21623XXSP,2013-03-08 16:37:00,
2013-03-08 10:42:00,36.1,18.3,30.39,South,180,7.6,7.6,48,0.00,,,0.00,WUHU21623XXSP,2013-03-08 16:42:00,
2013-03-08 10:47:00,36.3,17.9,30.39,SSE,157,5.6,7.6,47,0.00,,,0.00,WUHU21623XXSP,2013-03-08 16:47:00,
2013-03-08 10:52:00,36.3,17.9,30.39,SSE,157,2.5,7.6,47,0.00,,,0.00,WUHU21623XXSP,2013-03-08 16:52:00,
2013-03-08 10:57:00,36.5,18.1,30.39,SSE,157,5.1,5.8,47,0.00,,,0.00,WUHU21623XXSP,2013-03-08 16:57:00,
2013-03-08 11:02:00,36.7,18.3,30.39,SE,135,2.5,6.5,46,0.00,,,0.00,WUHU21623XXSP,2013-03-08 17:02:00,
2013-03-08 11:07:00,36.7,17.7,30.39,SE,135,2.7,6.5,46,0.00,,,0.00,WUHU21623XXSP,2013-03-08 17:07:00,
2013-03-08 11:12:00,36.7,17.7,30.39,SSE,157,3.6,5.6,46,0.00,,,0.00,WUHU21623XXSP,2013-03-08 17:12:00,
2013-03-08 11:17:00,37.0,18.1,30.39,SE,135,3.1,5.6,46,0.00,,,0.00,WUHU21623XXSP,2013-03-08 17:17:00,
2013-03-08 11:22:00,37.4,18.4,30.39,SE,135,4.5,5.6,46,0.00,,,0.00,WUHU21623XXSP,2013-03-08 17:22:00,
2013-03-08 11:27:00,38.1,19.0,30.39,SE,135,6.5,6.5,46,0.00,,,0.00,WUHU21623XXSP,2013-03-08 17:27:00,
2013-03-08 11:32:00,38.3,18.7,30.39,SSW,202,3.4,6.5,45,0.00,,,0.00,WUHU21623XXSP,2013-03-08 17:32:00,
2013-03-08 11:37:00,38.7,19.0,30.39,ESE,112,8.5,8.5,45,0.00,,,0.00,WUHU21623XXSP,2013-03-08 17:37:00,
2013-03-08 11:42:00,38.8,19.2,30.39,SSE,157,3.6,8.5,45,0.00,,,0.00,WUHU21623XXSP,2013-03-08 17:42:00,
2013-03-08 11:47:00,38.8,18.6,30.39,South,180,7.2,7.2,44,0.00,,,0.00,WUHU21623XXSP,2013-03-08 17:47:00,
2013-03-08 11:52:00,39.2,19.5,30.39,SSE,157,1.6,7.2,45,0.00,,,0.00,WUHU21623XXSP,2013-03-08 17:52:00,
2013-03-08 11:57:00,39.6,19.3,30.39,South,180,2.5,4.7,44,0.00,,,0.00,WUHU21623XXSP,2013-03-08 17:57:00,
2013-03-08 12:02:00,39.4,19.1,30.38,SSE,157,1.3,5.4,44,0.00,,,0.00,WUHU21623XXSP,2013-03-08 18:02:00,
2013-03-08 12:07:00,39.6,19.3,30.38,SE,135,5.4,6.0,44,0.00,,,0.00,WUHU21623XXSP,2013-03-08 18:07:00,
2013-03-08 12:12:00,39.9,19.6,30.38,SE,135,4.9,6.0,44,0.00,,,0.00,WUHU21623XXSP,2013-03-08 18:12:00,
2013-03-08 12:17:00,39.7,18.9,30.38,SSE,157,4.3,5.1,43,0.00,,,0.00,WUHU21623XXSP,2013-03-08 18:17:00,
2013-03-08 12:22:00,39.9,19.6,30.38,ESE,112,2.5,5.1,44,0.00,,,0.00,WUHU21623XXSP,2013-03-08 18:22:00,
2013-03-08 12:27:00,40.5,20.1,30.38,SE,135,5.4,6.5,44,0.00,,,0.00,WUHU21623XXSP,2013-03-08 18:27:00,
2013-03-08 12:32:00,40.5,19.6,30.38,SE,135,4.3,6.5,43,0.00,,,0.00,WUHU21623XXSP,2013-03-08 18:32:00,
2013-03-08 12:37:00,40.5,19.6,30.37,SSE,157,4.0,4.3,43,0.00,,,0.00,WUHU21623XXSP,2013-03-08 18:37:00,
2013-03-08 12:42:00,40.6,19.7,30.37,SE,135,3.6,4.0,43,0.00,,,0.00,WUHU21623XXSP,2013-03-08 18:42:00,
2013-03-08 12:47:00,40.8,19.9,30.37,SSE,157,4.0,4.0,43,0.00,,,0.00,WUHU21623XXSP,2013-03-08 18:47:00,
2013-03-08 12:52:00,41.0,20.1,30.37,SE,135,3.6,4.0,43,0.00,,,0.00,WUHU21623XXSP,2013-03-08 18:52:00,
2013-03-08 12:57:00,41.0,20.1,30.37,SSE,157,4.0,5.6,43,0.00,,,0.00,WUHU21623XXSP,2013-03-08 18:57:00,
2013-03-08 13:02:00,41.0,19.5,30.37,ESE,112,6.0,6.0,42,0.00,,,0.00,WUHU21623XXSP,2013-03-08 19:02:00,
2013-03-08 13:07:00,41.2,19.7,30.36,ESE,112,6.5,6.5,42,0.00,,,0.00,WUHU21623XXSP,2013-03-08 19:07:00,
2013-03-08 13:12:00,40.6,18.7,30.36,ESE,112,4.0,6.5,41,0.00,,,0.00,WUHU21623XXSP,2013-03-08 19:12:00,
2013-03-08 13:17:00,40.6,19.2,30.35,ESE,112,1.1,4.5,42,0.00,,,0.00,WUHU21623XXSP,2013-03-08 19:17:00,
2013-03-08 13:22:00,40.6,19.2,30.35,SE,135,4.5,4.5,42,0.00,,,0.00,WUHU21623XXSP,2013-03-08 19:22:00,
2013-03-08 13:27:00,40.6,19.2,30.35,SSE,157,3.4,4.5,42,0.00,,,0.00,WUHU21623XXSP,2013-03-08 19:27:00,
2013-03-08 13:32:00,40.6,19.2,30.35,SSW,202,1.8,6.7,42,0.00,,,0.00,WUHU21623XXSP,2013-03-08 19:32:00,
2013-03-08 13:37:00,40.6,19.2,30.35,SSE,157,4.3,6.7,42,0.00,,,0.00,WUHU21623XXSP,2013-03-08 19:37:00,
2013-03-08 13:42:00,40.8,19.4,30.35,ESE,112,2.0,4.3,42,0.00,,,0.00,WUHU21623XXSP,2013-03-08 19:42:00,
2013-03-08 13:47:00,41.0,19.5,30.34,South,180,5.6,5.6,42,0.00,,,0.00,WUHU21623XXSP,2013-03-08 19:47:00,
2013-03-08 13:52:00,40.8,19.4,30.34,SE,135,5.6,5.6,42,0.00,,,0.00,WUHU21623XXSP,2013-03-08 19:52:00,
2013-03-08 13:57:00,40.8,19.9,30.34,SE,135,1.8,5.6,43,0.00,,,0.00,WUHU21623XXSP,2013-03-08 19:57:00,
2013-03-08 14:02:00,41.2,20.8,30.34,SSE,157,2.2,3.4,44,0.00,,,0.00,WUHU21623XXSP,2013-03-08 20:02:00,
2013-03-08 14:07:00,41.4,20.4,30.34,ESE,112,4.3,4.3,43,0.00,,,0.00,WUHU21623XXSP,2013-03-08 20:07:00,
2013-03-08 14:12:00,41.4,20.4,30.34,ESE,112,2.7,4.3,43,0.00,,,0.00,WUHU21623XXSP,2013-03-08 20:12:00,
2013-03-08 14:17:00,41.4,20.9,30.33,SE,135,2.9,2.9,44,0.00,,,0.00,WUHU21623XXSP,2013-03-08 20:17:00,
2013-03-08 14:22:00,41.2,20.8,30.34,ESE,112,2.9,3.6,44,0.00,,,0.00,WUHU21623XXSP,2013-03-08 20:22:00,
2013-03-08 14:27:00,41.0,20.6,30.33,ESE,112,0.9,3.6,44,0.00,,,0.00,WUHU21623XXSP,2013-03-08 20:27:00,
2013-03-08 14:32:00,40.8,20.9,30.32,ESE,112,4.9,4.9,45,0.00,,,0.00,WUHU21623XXSP,2013-03-08 20:32:00,
2013-03-08 14:37:00,40.5,20.1,30.33,SSE,157,5.6,6.3,44,0.00,,,0.00,WUHU21623XXSP,2013-03-08 20:37:00,
2013-03-08 14:42:00,40.1,19.8,30.33,ESE,112,2.0,6.3,44,0.00,,,0.00,WUHU21623XXSP,2013-03-08 20:42:00,
2013-03-08 14:47:00,40.1,20.3,30.33,SSE,157,4.7,5.4,45,0.00,,,0.00,WUHU21623XXSP,2013-03-08 20:47:00,
2013-03-08 14:52:00,40.3,21.0,30.33,SSE,157,1.3,4.7,46,0.00,,,0.00,WUHU21623XXSP,2013-03-08 20:52:00,
2013-03-08 14:57:00,40.5,21.1,30.32,SE,135,4.9,4.9,46,0.00,,,0.00,WUHU21623XXSP,2013-03-08 20:57:00,
2013-03-08 15:02:00,40.5,21.1,30.32,SE,135,5.8,5.8,46,0.00,,,0.00,WUHU21623XXSP,2013-03-08 21:02:00,
2013-03-08 15:07:00,40.1,20.8,30.32,SE,135,2.5,5.8,46,0.00,,,0.00,WUHU21623XXSP,2013-03-08 21:07:00,
2013-03-08 15:12:00,40.3,21.0,30.32,East,90,3.1,4.5,46,0.00,,,0.00,WUHU21623XXSP,2013-03-08 21:12:00,
2013-03-08 15:17:00,40.5,21.1,30.32,ESE,112,3.8,3.8,46,0.00,,,0.00,WUHU21623XXSP,2013-03-08 21:17:00,
2013-03-08 15:22:00,40.1,20.8,30.31,ESE,112,3.4,4.9,46,0.00,,,0.00,WUHU21623XXSP,2013-03-08 21:22:00,
2013-03-08 15:27:00,39.9,21.2,30.31,SSE,157,4.3,4.9,47,0.00,,,0.00,WUHU21623XXSP,2013-03-08 21:27:00,
2013-03-08 15:32:00,39.9,20.7,30.31,ESE,112,0.7,4.3,46,0.00,,,0.00,WUHU21623XXSP,2013-03-08 21:32:00,
2013-03-08 15:37:00,39.6,20.9,30.31,SE,135,2.7,3.4,47,0.00,,,0.00,WUHU21623XXSP,2013-03-08 21:37:00,
2013-03-08 15:42:00,39.2,20.5,30.31,SE,135,3.1,5.8,47,0.00,,,0.00,WUHU21623XXSP,2013-03-08 21:42:00,
2013-03-08 15:47:00,38.8,20.2,30.31,SSE,157,2.9,5.8,47,0.00,,,0.00,WUHU21623XXSP,2013-03-08 21:47:00,
2013-03-08 15:52:00,38.7,20.0,30.31,SE,135,6.5,6.5,47,0.00,,,0.00,WUHU21623XXSP,2013-03-08 21:52:00,
2013-03-08 15:57:00,38.7,20.0,30.30,ESE,112,3.1,6.5,47,0.00,,,0.00,WUHU21623XXSP,2013-03-08 21:57:00,
2013-03-08 16:02:00,38.7,20.6,30.30,SE,135,1.3,5.8,48,0.00,,,0.00,WUHU21623XXSP,2013-03-08 22:02:00,
2013-03-08 16:07:00,38.3,20.2,30.30,SSE,157,1.8,5.8,48,0.00,,,0.00,WUHU21623XXSP,2013-03-08 22:07:00,
2013-03-08 16:12:00,38.3,20.8,30.31,SSE,157,3.4,3.4,49,0.00,,,0.00,WUHU21623XXSP,2013-03-08 22:12:00,
2013-03-08 16:17:00,38.5,20.9,30.31,SE,135,0.0,3.4,49,0.00,,,0.00,WUHU21623XXSP,2013-03-08 22:17:00,
2013-03-08 16:22:00,38.7,21.6,30.31,SE,135,1.6,2.5,50,0.00,,,0.00,WUHU21623XXSP,2013-03-08 22:22:00,
2013-03-08 16:27:00,38.7,21.6,30.31,SE,135,0.7,1.8,50,0.00,,,0.00,WUHU21623XXSP,2013-03-08 22:27:00,
2013-03-08 16:32:00,38.3,21.3,30.31,SE,135,2.0,2.0,50,0.00,,,0.00,WUHU21623XXSP,2013-03-08 22:32:00,
2013-03-08 16:37:00,38.3,21.3,30.31,SSE,157,2.2,3.1,50,0.00,,,0.00,WUHU21623XXSP,2013-03-08 22:37:00,
2013-03-08 16:42:00,38.1,21.1,30.31,SE,135,0.4,3.1,50,0.00,,,0.00,WUHU21623XXSP,2013-03-08 22:42:00,
2013-03-08 16:47:00,37.9,21.0,30.31,SE,135,0.2,2.2,50,0.00,,,0.00,WUHU21623XXSP,2013-03-08 22:47:00,
2013-03-08 16:52:00,37.8,20.8,30.31,SE,135,0.9,4.0,50,0.00,,,0.00,WUHU21623XXSP,2013-03-08 22:52:00,
2013-03-08 16:57:00,37.6,20.6,30.31,SE,135,2.0,4.0,50,0.00,,,0.00,WUHU21623XXSP,2013-03-08 22:57:00,
2013-03-08 17:02:00,37.0,20.6,30.31,SE,135,0.0,2.5,51,0.00,,,0.00,WUHU21623XXSP,2013-03-08 23:02:00,
2013-03-08 17:07:00,36.9,20.4,30.31,SE,135,0.7,3.4,51,0.00,,,0.00,WUHU21623XXSP,2013-03-08 23:07:00,
2013-03-08 17:12:00,36.5,20.1,30.31,SE,135,1.6,3.4,51,0.00,,,0.00,WUHU21623XXSP,2013-03-08 23:12:00,
2013-03-08 17:17:00,36.3,20.4,30.31,ESE,112,0.0,1.6,52,0.00,,,0.00,WUHU21623XXSP,2013-03-08 23:17:00,
2013-03-08 17:22:00,36.1,20.2,30.31,SE,135,0.0,1.6,52,0.00,,,0.00,WUHU21623XXSP,2013-03-08 23:22:00,
2013-03-08 17:27:00,35.8,19.9,30.31,ESE,112,0.0,1.6,52,0.00,,,0.00,WUHU21623XXSP,2013-03-08 23:27:00,
2013-03-08 17:32:00,35.2,19.8,30.31,SE,135,1.3,1.3,53,0.00,,,0.00,WUHU21623XXSP,2013-03-08 23:32:00,
2013-03-08 17:37:00,34.9,19.4,30.31,SE,135,0.0,1.3,53,0.00,,,0.00,WUHU21623XXSP,2013-03-08 23:37:00,
2013-03-08 17:42:00,34.7,19.3,30.31,ESE,112,1.1,2.0,53,0.00,,,0.00,WUHU21623XXSP,2013-03-08 23:42:00,
2013-03-08 17:47:00,34.2,19.3,30.31,ESE,112,0.0,2.0,54,0.00,,,0.00,WUHU21623XXSP,2013-03-08 23:47:00,
2013-03-08 17:52:00,34.0,19.0,30.31,SE,135,0.7,1.3,54,0.00,,,0.00,WUHU21623XXSP,2013-03-08 23:52:00,
2013-03-08 17:57:00,33.8,19.2,30.31,ESE,112,0.0,1.1,55,0.00,,,0.00,WUHU21623XXSP,2013-03-08 23:57:00,
2013-03-08 18:02:00,33.3,18.7,30.31,ESE,112,0.0,0.7,55,0.00,,,0.00,WUHU21623XXSP,2013-03-09 00:02:00,
2013-03-08 18:07:00,33.3,18.7,30.31,SE,135,0.2,0.2,55,0.00,,,0.00,WUHU21623XXSP,2013-03-09 00:07:00,
2013-03-08 18:12:00,32.9,18.8,30.30,ESE,112,0.7,0.7,56,0.00,,,0.00,WUHU21623XXSP,2013-03-09 00:12:00,
2013-03-08 18:17:00,32.7,18.7,30.30,ESE,112,0.0,0.7,56,0.00,,,0.00,WUHU21623XXSP,2013-03-09 00:17:00,
2013-03-08 18:22:00,32.5,18.9,30.30,NE,45,2.7,2.7,57,0.00,,,0.00,WUHU21623XXSP,2013-03-09 00:22:00,
2013-03-08 18:27:00,32.5,18.9,30.30,ESE,112,0.0,2.7,57,0.00,,,0.00,WUHU21623XXSP,2013-03-09 00:27:00,
2013-03-08 18:32:00,32.4,18.8,30.30,SE,135,1.3,1.8,57,0.00,,,0.00,WUHU21623XXSP,2013-03-09 00:32:00,
2013-03-08 18:37:00,32.4,18.8,30.30,ESE,112,0.0,1.3,57,0.00,,,0.00,WUHU21623XXSP,2013-03-09 00:37:00,
2013-03-08 18:42:00,32.2,19.1,30.30,ENE,67,1.8,1.8,58,0.00,,,0.00,WUHU21623XXSP,2013-03-09 00:42:00,
2013-03-08 18:47:00,32.2,19.1,30.30,ESE,112,2.7,2.7,58,0.00,,,0.00,WUHU21623XXSP,2013-03-09 00:47:00,
2013-03-08 18:53:00,32.2,19.1,30.30,East,90,1.1,2.7,58,0.00,,,0.00,WUHU21623XXSP,2013-03-09 00:53:00,
2013-03-08 18:58:00,31.8,19.1,30.30,ESE,112,1.3,2.0,59,0.00,,,0.00,WUHU21623XXSP,2013-03-09 00:58:00,
2013-03-08 19:03:00,31.6,19.4,30.30,ESE,112,2.5,2.5,60,0.00,,,0.00,WUHU21623XXSP,2013-03-09 01:03:00,
2013-03-08 19:08:00,31.6,19.4,30.30,ESE,112,0.4,2.5,60,0.00,,,0.00,WUHU21623XXSP,2013-03-09 01:08:00,
2013-03-08 19:13:00,31.6,19.4,30.30,ESE,112,4.0,4.0,60,0.00,,,0.00,WUHU21623XXSP,2013-03-09 01:13:00,
2013-03-08 19:18:00,31.5,19.2,30.29,ESE,112,1.1,4.0,60,0.00,,,0.00,WUHU21623XXSP,2013-03-09 01:18:00,
2013-03-08 19:23:00,31.5,19.2,30.30,ESE,112,1.8,1.8,60,0.00,,,0.00,WUHU21623XXSP,2013-03-09 01:23:00,
2013-03-08 19:28:00,31.5,19.2,30.29,ESE,112,3.6,3.6,60,0.00,,,0.00,WUHU21623XXSP,2013-03-09 01:28:00,
2013-03-08 19:33:00,31.5,19.6,30.29,ESE,112,0.0,3.6,61,0.00,,,0.00,WUHU21623XXSP,2013-03-09 01:33:00,
2013-03-08 19:38:00,31.5,19.6,30.29,ENE,67,2.0,2.0,61,0.00,,,0.00,WUHU21623XXSP,2013-03-09 01:38:00,
2013-03-08 19:43:00,31.1,19.2,30.29,ENE,67,2.2,2.2,61,0.00,,,0.00,WUHU21623XXSP,2013-03-09 01:43:00,
2013-03-08 19:48:00,31.1,19.2,30.29,ESE,112,1.8,2.2,61,0.00,,,0.00,WUHU21623XXSP,2013-03-09 01:48:00,
2013-03-08 19:53:00,31.1,19.2,30.28,ESE,112,0.9,1.8,61,0.00,,,0.00,WUHU21623XXSP,2013-03-09 01:53:00,
2013-03-08 19:58:00,30.9,19.0,30.28,ESE,112,1.8,4.5,61,0.00,,,0.00,WUHU21623XXSP,2013-03-09 01:58:00,
2013-03-08 20:03:00,30.9,19.0,30.28,ESE,112,3.4,4.5,61,0.00,,,0.00,WUHU21623XXSP,2013-03-09 02:03:00,
2013-03-08 20:08:00,30.9,19.4,30.28,ESE,112,1.6,3.4,62,0.00,,,0.00,WUHU21623XXSP,2013-03-09 02:08:00,
2013-03-08 20:13:00,30.9,19.4,30.28,ESE,112,2.9,3.4,62,0.00,,,0.00,WUHU21623XXSP,2013-03-09 02:13:00,
2013-03-08 20:18:00,30.7,19.2,30.27,East,90,2.0,2.9,62,0.00,,,0.00,WUHU21623XXSP,2013-03-09 02:18:00,
2013-03-08 20:23:00,30.6,19.0,30.27,SE,135,8.5,8.5,62,0.00,,,0.00,WUHU21623XXSP,2013-03-09 02:23:00,
2013-03-08 20:28:00,30.6,19.0,30.27,ENE,67,4.0,8.5,62,0.00,,,0.00,WUHU21623XXSP,2013-03-09 02:28:00,
2013-03-08 20:33:00,30.6,19.0,30.26,East,90,1.8,4.0,62,0.00,,,0.00,WUHU21623XXSP,2013-03-09 02:33:00,
2013-03-08 20:38:00,30.6,19.0,30.26,ESE,112,5.6,5.6,62,0.00,,,0.00,WUHU21623XXSP,2013-03-09 02:38:00,
2013-03-08 20:43:00,30.6,19.4,30.26,ESE,112,4.3,6.3,63,0.00,,,0.00,WUHU21623XXSP,2013-03-09 02:43:00,
2013-03-08 20:47:00,30.6,19.4,30.26,SE,135,4.0,6.3,63,0.00,,,0.00,WUHU21623XXSP,2013-03-09 02:47:00,
2013-03-08 20:52:00,30.4,19.2,30.26,ESE,112,1.8,4.0,63,0.00,,,0.00,WUHU21623XXSP,2013-03-09 02:52:00,
2013-03-08 20:57:00,30.6,19.4,30.26,SE,135,0.7,4.0,63,0.00,,,0.00,WUHU21623XXSP,2013-03-09 02:57:00,
2013-03-08 21:02:00,30.4,19.2,30.26,ESE,112,4.9,4.9,63,0.00,,,0.00,WUHU21623XXSP,2013-03-09 03:02:00,
2013-03-08 21:07:00,30.6,19.4,30.26,SE,135,3.8,5.4,63,0.00,,,0.00,WUHU21623XXSP,2013-03-09 03:07:00,
2013-03-08 21:12:00,30.6,19.4,30.26,ESE,112,4.7,5.4,63,0.00,,,0.00,WUHU21623XXSP,2013-03-09 03:12:00,
2013-03-08 21:17:00,30.6,19.4,30.26,SE,135,5.4,7.4,63,0.00,,,0.00,WUHU21623XXSP,2013-03-09 03:17:00,
2013-03-08 21:22:00,30.6,19.4,30.25,NNE,22,1.8,7.4,63,0.00,,,0.00,WUHU21623XXSP,2013-03-09 03:22:00,
2013-03-08 21:27:00,30.6,19.0,30.25,SE,135,6.7,6.7,62,0.00,,,0.00,WUHU21623XXSP,2013-03-09 03:27:00,
2013-03-08 21:32:00,30.6,19.0,30.25,ESE,112,3.6,6.7,62,0.00,,,0.00,WUHU21623XXSP,2013-03-09 03:32:00,
2013-03-08 21:37:00,30.7,19.2,30.25,East,90,5.6,6.7,62,0.00,,,0.00,WUHU21623XXSP,2013-03-09 03:37:00,
2013-03-08 21:42:00,30.7,19.2,30.25,East,90,1.8,6.0,62,0.00,,,0.00,WUHU21623XXSP,2013-03-09 03:42:00,
2013-03-08 21:47:00,30.7,19.2,30.25,ESE,112,0.7,2.5,62,0.00,,,0.00,WUHU21623XXSP,2013-03-09 03:47:00,
2013-03-08 21:52:00,30.9,19.4,30.25,SE,135,3.4,3.4,62,0.00,,,0.00,WUHU21623XXSP,2013-03-09 03:52:00,
2013-03-08 21:57:00,30.9,19.4,30.25,SE,135,2.9,3.6,62,0.00,,,0.00,WUHU21623XXSP,2013-03-09 03:57:00,
2013-03-08 22:02:00,30.9,19.4,30.25,ESE,112,2.0,3.6,62,0.00,,,0.00,WUHU21623XXSP,2013-03-09 04:02:00,
2013-03-08 22:07:00,30.9,19.0,30.24,ESE,112,0.9,4.7,61,0.00,,,0.00,WUHU21623XXSP,2013-03-09 04:07:00,
2013-03-08 22:12:00,31.1,19.2,30.24,SE,135,2.9,4.7,61,0.00,,,0.00,WUHU21623XXSP,2013-03-09 04:12:00,
2013-03-08 22:17:00,30.9,19.0,30.25,SE,135,2.5,2.9,61,0.00,,,0.00,WUHU21623XXSP,2013-03-09 04:17:00,
2013-03-08 22:22:00,30.9,19.0,30.25,SE,135,3.4,3.4,61,0.00,,,0.00,WUHU21623XXSP,2013-03-09 04:22:00,
2013-03-08 22:27:00,30.9,19.0,30.24,ESE,112,3.1,4.5,61,0.00,,,0.00,WUHU21623XXSP,2013-03-09 04:27:00,
2013-03-08 22:32:00,30.7,18.9,30.24,SE,135,2.2,4.5,61,0.00,,,0.00,WUHU21623XXSP,2013-03-09 04:32:00,
2013-03-08 22:37:00,30.7,19.2,30.24,East,90,1.1,2.2,62,0.00,,,0.00,WUHU21623XXSP,2013-03-09 04:37:00,
2013-03-08 22:42:00,30.6,19.0,30.24,SE,135,3.8,5.6,62,0.00,,,0.00,WUHU21623XXSP,2013-03-09 04:42:00,
2013-03-08 22:47:00,30.6,19.0,30.24,SE,135,1.3,5.6,62,0.00,,,0.00,WUHU21623XXSP,2013-03-09 04:47:00,
2013-03-08 22:52:00,30.6,19.0,30.23,SSE,157,2.9,5.8,62,0.00,,,0.00,WUHU21623XXSP,2013-03-09 04:52:00,
2013-03-08 22:57:00,30.4,18.9,30.23,ESE,112,3.6,5.8,62,0.00,,,0.00,WUHU21623XXSP,2013-03-09 04:57:00,
2013-03-08 23:00:00,30.4,18.9,30.23,SE,135,2.2,5.8,62,0.00,,,0.00,WUHU21623XXSP,2013-03-09 05:00:00,
2013-03-08 23:05:00,30.4,18.9,30.22,ESE,112,5.1,5.1,62,0.00,,,0.00,WUHU21623XXSP,2013-03-09 05:05:00,
2013-03-08 23:10:00,30.4,18.9,30.23,SE,135,0.9,6.9,62,0.00,,,0.00,WUHU21623XXSP,2013-03-09 05:10:00,
2013-03-08 23:15:00,30.4,18.9,30.23,SSE,157,1.3,6.9,62,0.00,,,0.00,WUHU21623XXSP,2013-03-09 05:15:00,
2013-03-08 23:20:00,30.4,18.7,30.22,SE,135,3.8,5.1,62,0.00,,,0.00,WUHU21623XXSP,2013-03-09 05:20:00,
2013-03-08 23:25:00,30.4,18.9,30.22,SSE,157,2.9,3.8,62,0.00,,,0.00,WUHU21623XXSP,2013-03-09 05:25:00,
2013-03-08 23:30:00,30.4,18.9,30.22,ESE,112,1.6,2.9,62,0.00,,,0.00,WUHU21623XXSP,2013-03-09 05:30:00,
2013-03-08 23:35:00,30.4,18.9,30.22,SE,135,1.8,7.2,62,0.00,,,0.00,WUHU21623XXSP,2013-03-09 05:35:00,
2013-03-08 23:40:00,30.4,19.2,30.22,SSE,157,3.1,7.2,63,0.00,,,0.00,WUHU21623XXSP,2013-03-09 05:40:00,
2013-03-08 23:45:00,30.4,19.2,30.22,SE,135,0.9,6.7,63,0.00,,,0.00,WUHU21623XXSP,2013-03-09 05:45:00,
2013-03-08 23:50:00,30.6,19.4,30.22,ESE,112,2.7,8.7,63,0.00,,,0.00,WUHU21623XXSP,2013-03-09 05:50:00,
2013-03-08 23:55:00,30.6,19.4,30.21,SE,135,1.3,8.7,63,0.00,,,0.00,WUHU21623XXSP,2013-03-09 05:55:00,